カタログに戻る

COSMOS 252 DEB

運用中LEO
NORAD 18431·DEBRIS·🇷🇺 Russia

打ち上げ Nov 1, 1968 から Baikonur Cosmodrome

Loading…

次のパス (今後24時間)

TLE

最新Source: Space-Track

元期: Sep 14, 2026, 08:54 UTC

1 18431U 68097EJ  26257.37108020 -.00000210  00000-0 -29704-4 0  9991
2 18431  62.3496 210.4396 0849307 176.2792 184.5108 13.20498723460128

AllMySatでCOSMOS 252 DEBをリアルタイム追跡

Download on the App Store